This is the latest recevied weather packets stored in our database for station/object K3MV-13. If no packets are shown the sender has not sent any weather packets the latest 10 day(s).
| Time | Temp. | Humidity | Pressure | Rain* | Wind** | Luminosity | Snow |
|---|---|---|---|---|---|---|---|
| 1777827391 | 10.56° C | 43% | 1016.3 hPa | 0 mm | - | 885 W/m² | - |
| 1777827088 | 10.56° C | 44% | 1016.6 hPa | 0 mm | - | 770 W/m² | - |
| 1777826784 | 10.56° C | 44% | 1016.7 hPa | 0 mm | - | 844 W/m² | - |
| 1777826481 | 10.56° C | 45% | 1016.6 hPa | 0 mm | - | 856 W/m² | - |
| 1777826178 | 10.56° C | 44% | 1016.5 hPa | 0 mm | - | 857 W/m² | - |
| 1777825876 | 10° C | 44% | 1016.6 hPa | 0 mm | - | 832 W/m² | - |
| 1777825573 | 10° C | 44% | 1016.7 hPa | 0 mm | - | 829 W/m² | - |
| 1777825271 | 9.44° C | 45% | 1016.9 hPa | 0 mm | - | 839 W/m² | - |
| 1777824967 | 9.44° C | 47% | 1016.7 hPa | 0 mm | - | 695 W/m² | - |
| 1777824663 | 9.44° C | 47% | 1016.9 hPa | 0 mm | - | 820 W/m² | - |
| 1777824361 | 8.89° C | 46% | 1016.8 hPa | 0 mm | - | 569 W/m² | - |
| 1777824056 | 9.44° C | 46% | 1016.7 hPa | 0 mm | - | 878 W/m² | - |
| 1777823753 | 9.44° C | 44% | 1016.9 hPa | 0 mm | - | 826 W/m² | - |
| 1777823450 | 9.44° C | 46% | 1017 hPa | 0 mm | - | 805 W/m² | - |
| 1777823147 | 9.44° C | 48% | 1017 hPa | 0 mm | - | 793 W/m² | - |
| 1777822844 | 9.44° C | 48% | 1017.1 hPa | 0 mm | - | 792 W/m² | - |
| 1777822543 | 8.89° C | 45% | 1017.1 hPa | 0 mm | - | 784 W/m² | - |
| 1777822240 | 8.89° C | 46% | 1017 hPa | 0 mm | - | 772 W/m² | - |
| 1777821937 | 8.89° C | 50% | 1016.9 hPa | 0 mm | - | 764 W/m² | - |
| 1777821635 | 8.89° C | 50% | 1017 hPa | 0 mm | - | 751 W/m² | - |
| 1777821333 | 8.33° C | 49% | 1017 hPa | 0 mm | - | 742 W/m² | - |
| 1777821029 | 8.33° C | 46% | 1017.1 hPa | 0 mm | - | 735 W/m² | - |
| 1777820726 | 8.33° C | 46% | 1017 hPa | 0 mm | - | 738 W/m² | - |
| 1777820422 | 7.78° C | 51% | 1017.1 hPa | 0 mm | - | 731 W/m² | - |
| 1777820120 | 7.78° C | 49% | 1017.1 hPa | 0 mm | - | 736 W/m² | - |
* Rain latest hour (hover to see other rain measurements)
** Current wind speed in m/s (hover to see current wind gust speed)